Carrollton, GA

8:05 AM EDT on July 24, 2017 (GMT -0400)
West Georgia Regional-Gray

Weather History for KCTJ - March, 2014

Change the Weather History Date:

Monday, March 3, 2014

  Actual Average Record
Temperature  
Mean Temperature 46 °F -  
Max Temperature 60 °F 64 °F 78 °F (1976)
Min Temperature 32 °F 40 °F 10 °F (1980)
Degree Days  
Heating Degree Days 19    
Moisture  
Dew Point 43 °F    
Average Humidity 89    
Maximum Humidity 100    
Minimum Humidity 59    
Precipitation  
Precipitation 0.00 in - - ()
Sea Level Pressure  
Sea Level Pressure 29.98 in    
Wind  
Wind Speed 8 mph (WNW)    
Max Wind Speed 16 mph    
Max Gust Speed 26 mph    
Visibility 9 miles    
Events Rain    
Averages and records for this station are not official NWS values.
T = Trace of Precipitation, MM = Missing Value Source: NWS Daily Summary

Daily Weather History Graph

Daily Weather History Graph

Search for Another Location

Airport or City:

Trip Planner

Search our weather history database for the weather conditions in past years. The results will help you decide how hot, cold, wet, or windy it might be!

Date:

Astronomy

Mar. 03, 2014 Rise Set
Actual Time 7:06 AM EST 6:38 PM EST
Civil Twilight 6:41 AM EST 7:03 PM EST
Nautical Twilight 6:12 AM EST 7:32 PM EST
Astronomical Twilight 5:43 AM EST 8:01 PM EST
Moon 8:23 AM EST (3/3) 9:30 PM EST (3/3)
Length of Visible Light 12h 22m
Length of Day
11h 32m
Waxing Crescent, 8% of the Moon is Illuminated
Mar 3
Waxing Crescent
Mar 8
First Quarter
Mar 16
Full
Mar 23
Last Quarter
Mar 30
New

Hourly Weather History & Observations

Time (EST) Temp. Windchill Dew Point Humidity Pressure Visibility Wind Dir Wind Speed Gust Speed Precip Events Conditions
12:14 AM 57.2 °F - 44.6 °F 63% 29.94 in 10.0 mi SSW 5.8 mph - N/A   Clear
12:34 AM 59.0 °F - 44.6 °F 59% 29.94 in 10.0 mi SSW 6.9 mph - N/A   Clear
12:54 AM 59.0 °F - 44.6 °F 59% 29.93 in 10.0 mi SSW 8.1 mph - N/A   Clear
1:14 AM 60.8 °F - 46.4 °F 59% 29.93 in 10.0 mi SW 10.4 mph 18.4 mph N/A   Scattered Clouds
1:34 AM 60.8 °F - 46.4 °F 59% 29.93 in 10.0 mi SW 8.1 mph 18.4 mph N/A   Overcast
1:54 AM 59.0 °F - 46.4 °F 63% 29.92 in 10.0 mi SW 6.9 mph 17.3 mph N/A   Overcast
2:14 AM 59.0 °F - 48.2 °F 67% 29.91 in 10.0 mi SSW 8.1 mph - N/A   Overcast
2:34 AM 59.0 °F - 50.0 °F 72% 29.90 in 10.0 mi SSW 8.1 mph - N/A   Overcast
2:54 AM 59.0 °F - 50.0 °F 72% 29.89 in 10.0 mi SW 8.1 mph - N/A   Overcast
3:14 AM 59.0 °F - 51.8 °F 77% 29.88 in 10.0 mi SW 5.8 mph - N/A   Overcast
3:34 AM 59.0 °F - 51.8 °F 77% 29.86 in 10.0 mi SW 8.1 mph - N/A   Overcast
3:54 AM 59.0 °F - 51.8 °F 77% 29.85 in 10.0 mi SSW 8.1 mph - N/A   Overcast
4:14 AM 59.0 °F - 53.6 °F 82% 29.83 in 10.0 mi SSW 5.8 mph 16.1 mph N/A   Overcast
4:34 AM 59.0 °F - 53.6 °F 82% 29.83 in 10.0 mi SW 10.4 mph 18.4 mph N/A   Overcast
4:54 AM 59.0 °F - 53.6 °F 82% 29.84 in 10.0 mi SSW 6.9 mph - N/A   Overcast
5:14 AM 59.0 °F - 53.6 °F 82% 29.85 in 10.0 mi WSW 9.2 mph 18.4 mph N/A Rain Light Rain
5:34 AM 59.0 °F - 55.4 °F 88% 29.85 in 10.0 mi SW 6.9 mph - N/A   Light Drizzle
5:54 AM 59.0 °F - 55.4 °F 88% 29.87 in 7.0 mi WSW 5.8 mph - N/A Rain Rain
6:14 AM 57.2 °F - 55.4 °F 94% 29.87 in 5.0 mi SW 5.8 mph - N/A Rain Light Rain
6:34 AM 57.2 °F - 55.4 °F 94% 29.87 in 5.0 mi SW 4.6 mph - N/A Rain Rain
6:54 AM 57.2 °F - 55.4 °F 94% 29.87 in 5.0 mi SW 3.5 mph - N/A Rain Rain
7:14 AM 57.2 °F - 55.4 °F 94% 29.82 in 7.0 mi South 6.9 mph - N/A Rain Rain
7:34 AM 57.2 °F - 57.2 °F 100% 29.83 in 10.0 mi SSW 8.1 mph - N/A Rain Light Rain
7:54 AM 59.0 °F - 57.2 °F 94% 29.85 in 10.0 mi WSW 5.8 mph - N/A   Overcast
8:14 AM 59.0 °F - 57.2 °F 94% 29.86 in 10.0 mi SW 8.1 mph - N/A   Overcast
8:34 AM 59.0 °F - 57.2 °F 94% 29.86 in 10.0 mi WSW 5.8 mph 17.3 mph N/A   Overcast
8:54 AM 59.0 °F - 57.2 °F 94% 29.86 in 2.0 mi SW 4.6 mph - N/A   Drizzle
9:14 AM 59.0 °F - 59.0 °F 100% 29.86 in 5.0 mi SW 6.9 mph - N/A   Light Drizzle
9:34 AM 59.0 °F - 59.0 °F 100% 29.87 in 5.0 mi SW 5.8 mph - N/A   Drizzle
9:54 AM 57.2 °F - 55.4 °F 94% 29.88 in 7.0 mi WNW 12.7 mph 24.2 mph N/A   Drizzle
10:14 AM 55.4 °F - 55.4 °F 100% 29.90 in 5.0 mi WNW 8.1 mph 17.3 mph N/A   Drizzle
10:34 AM 53.6 °F - 51.8 °F 94% 29.91 in 10.0 mi WNW 11.5 mph 19.6 mph N/A   Overcast
10:54 AM 50.0 °F - 50.0 °F 100% 29.93 in 7.0 mi NW 15.0 mph 19.6 mph N/A   Overcast
11:14 AM 48.2 °F - 46.4 °F 93% 29.95 in 10.0 mi NW 13.8 mph 18.4 mph N/A   Overcast
11:33 AM 44.6 °F 38.4 °F 44.6 °F 100% 29.95 in 10.0 mi NNW 12.7 mph 17.3 mph N/A   Overcast
11:54 AM 42.8 °F 37.5 °F 42.8 °F 100% 29.97 in 10.0 mi NW 9.2 mph 21.9 mph N/A   Overcast
12:14 PM 42.8 °F 35.1 °F 41.0 °F 93% 29.97 in 10.0 mi WNW 16.1 mph 26.5 mph N/A   Overcast
12:34 PM 42.8 °F 38.0 °F 41.0 °F 93% 29.97 in 10.0 mi NW 8.1 mph 17.3 mph N/A   Overcast
12:54 PM 42.8 °F 35.1 °F 41.0 °F 93% 29.97 in 10.0 mi NW 16.1 mph 24.2 mph N/A   Overcast
1:14 PM 42.8 °F 37.0 °F 41.0 °F 93% 29.97 in 10.0 mi NW 10.4 mph 20.7 mph N/A   Overcast
1:34 PM 41.0 °F 34.7 °F 37.4 °F 87% 29.99 in 10.0 mi NW 10.4 mph 17.3 mph N/A   Overcast
1:54 PM 39.2 °F 33.0 °F 37.4 °F 93% 29.99 in 10.0 mi NW 9.2 mph 18.4 mph N/A   Overcast
2:14 PM 37.4 °F 29.8 °F 35.6 °F 93% 30.00 in 10.0 mi WNW 11.5 mph 19.6 mph N/A   Overcast
2:34 PM 35.6 °F 29.9 °F 35.6 °F 100% 30.02 in 10.0 mi NW 6.9 mph - N/A   Overcast
2:54 PM 35.6 °F 27.5 °F 33.8 °F 93% 30.01 in 10.0 mi NW 11.5 mph 18.4 mph N/A   Overcast
3:14 PM 35.6 °F 29.9 °F 33.8 °F 93% 30.01 in 10.0 mi WNW 6.9 mph - N/A   Overcast
3:34 PM 35.6 °F 28.0 °F 33.8 °F 93% 30.02 in 10.0 mi NW 10.4 mph - N/A   Overcast
3:54 PM 35.6 °F 29.2 °F 33.8 °F 93% 30.03 in 10.0 mi NW 8.1 mph - N/A   Overcast
4:14 PM 35.6 °F 28.0 °F 33.8 °F 93% 30.03 in 10.0 mi NNW 10.4 mph 20.7 mph N/A   Overcast
4:34 PM 35.6 °F 28.6 °F 33.8 °F 93% 30.05 in 10.0 mi NW 9.2 mph - N/A   Overcast
4:54 PM 35.6 °F 28.6 °F 33.8 °F 93% 30.05 in 10.0 mi NW 9.2 mph - N/A   Overcast
5:14 PM 35.6 °F 29.9 °F 32.0 °F 87% 30.07 in 10.0 mi NW 6.9 mph - N/A   Overcast
5:34 PM 35.6 °F 28.6 °F 32.0 °F 87% 30.07 in 10.0 mi NW 9.2 mph 16.1 mph N/A   Overcast
5:53 PM 35.6 °F 28.0 °F 32.0 °F 87% 30.08 in 10.0 mi NW 10.4 mph - N/A   Overcast
6:14 PM 33.8 °F 24.3 °F 32.0 °F 93% 30.09 in 10.0 mi NNW 13.8 mph 20.7 mph N/A   Overcast
6:34 PM 33.8 °F 27.7 °F 32.0 °F 93% 30.10 in 10.0 mi NW 6.9 mph - N/A   Overcast
6:54 PM 33.8 °F 25.8 °F 32.0 °F 93% 30.10 in 10.0 mi NNW 10.4 mph 19.6 mph N/A   Overcast
7:14 PM 33.8 °F 25.3 °F 32.0 °F 93% 30.10 in 10.0 mi NNW 11.5 mph 18.4 mph N/A   Overcast
7:34 PM 33.8 °F 24.8 °F 32.0 °F 93% 30.10 in 10.0 mi NNW 12.7 mph 21.9 mph N/A   Overcast
7:54 PM 33.8 °F 25.3 °F 32.0 °F 93% 30.10 in 10.0 mi NNW 11.5 mph - N/A   Overcast
8:14 PM 33.8 °F 27.0 °F 32.0 °F 93% 30.12 in 10.0 mi NNW 8.1 mph - N/A   Overcast
8:34 PM 33.8 °F 25.8 °F 32.0 °F 93% 30.12 in 10.0 mi NW 10.4 mph - N/A   Overcast
8:54 PM 33.8 °F 27.7 °F 32.0 °F 93% 30.13 in 10.0 mi NNW 6.9 mph - N/A   Overcast
9:14 PM 32.0 °F 23.0 °F 32.0 °F 100% 30.12 in 10.0 mi NNW 11.5 mph 16.1 mph N/A   Overcast
9:33 PM 32.0 °F 23.0 °F 30.2 °F 93% 30.13 in 10.0 mi North 11.5 mph - N/A   Overcast
9:54 PM 32.0 °F 23.0 °F 30.2 °F 93% 30.14 in 10.0 mi North 11.5 mph 18.4 mph N/A   Overcast
10:14 PM 32.0 °F 22.5 °F 30.2 °F 93% 30.15 in 10.0 mi NNW 12.7 mph 16.1 mph N/A   Overcast
10:34 PM 32.0 °F 23.6 °F 30.2 °F 93% 30.15 in 10.0 mi NNW 10.4 mph - N/A   Overcast
10:54 PM 32.0 °F 23.6 °F 30.2 °F 93% 30.16 in 10.0 mi North 10.4 mph - N/A   Overcast
11:14 PM 32.0 °F 22.1 °F 30.2 °F 93% 30.15 in 10.0 mi North 13.8 mph - N/A   Overcast
11:34 PM 32.0 °F 24.2 °F 30.2 °F 93% 30.14 in 10.0 mi North 9.2 mph - N/A   Overcast
11:54 PM 32.0 °F 23.6 °F 30.2 °F 93% 30.15 in 10.0 mi North 10.4 mph - N/A   Overcast